Погода Верхний Уфалей

Погода Верхний Уфалей : погода сейчас, прогноз погоды и архив. Всё, что Вы хотите узнать о погоде Верхний Уфалей!

Поиск расширенной информации на нашем сайте:

Другие новости

Новости СМИ2

Главная страница сайта

Новости сайта

03.07.2017

Напоминаем, что на нашем специализированном сайте Метеоцентр.Азия вы можете получить высокодетализированные автоматические прогнозы погоды по пунктам России, СНГ и мира в авиационном формате (включающие направление и скорость ветра, видимость, явления погоды, количество и форму облачности, нижнюю и верхнюю границу облачности).


Погода Верхний Уфалей - сегодня

Время (UTC), дата Ветер
(°,м/с) 
Видим.   Явления Облачность Т
(°С)
Тd
(°С)
f(%) Тe
(°С)
Pmin
(гПа)
dP
(гПа)
Po
(мм)
O2
(г/м3)
Тmin Tmax R s Состояние
почвы
15 17.05.18 280 (З) 20000 м    ясно 
+16.5 -7.3 19 +17  1012.9  -0.8  725  276    +17.5       
18 17.05.18 тихо ()   20000 м    ясно 
+6.3 -3.6 49 +6  1015.4  0.7  725  286           
21 17.05.18 060 (СВ) 20000 м    ясно 
+5.8 -1.8 58 +7  1014.9  -0.5  725  286           
00 18.05.18 080 (В) 20000 м    3/0 верхняя 
[Ci fib]
+4.4 -1 68 +5  1015  -0.2  725  288           
06 18.05.18 350 (С) 20000 м    8/6 600 м верхняя 
[Cu hum|Ci fib]
+18.4 -1.9 25 +19  1012.4  725  274           
09 18.05.18 090 (В) 20000 м    8/8 600 м верхняя 
[Cu hum|Ci fib]
+18.8 -3.4 22 +19  1013.9  1.5  726  274           
12 18.05.18 090 (В) 3{10}  20000 м    4/3 600 м верхняя 
[Sc|Ci fib]
+15.4 -0.9 33 +16  1017  2.4  728  278           
18 18.05.18 120 (ЮВ) 20000 м    8/0 средняя, верхняя 
[Ac trans|Ci sp]
+7.8 -1.7 51 +8  1021.8  1.7  730  286           
21 18.05.18 120 (ЮВ) 20000 м    8/0 средняя, верхняя 
[Ac trans|Ci sp]
+6.5 -4.5 45 +5  1022.2  0.1  730  288           
00 19.05.18 120 (ЮВ) 5{10}  20000 м    10/3 600 м средняя 
[Sc|Ac As]
+6.1 -1.7 57 +4  1021.5  -0.7  730  288           
06 19.05.18 170 (Ю) 4{10}  20000 м    8/5 600 м средняя 
[Sc|Ac trans]
+14 -1.9 33 +14  1018.3  -0.7  728  279           
09 19.05.18 180 (Ю) 5{10}  20000 м    6/3 600 м средняя 
[Sc|Ac trans]
+14.4 +0.9 40 +14  1017.3  -0.8  728  278           
12 19.05.18 160 (Ю) 3{10}  20000 м    8/3 600 м средняя, верхняя 
[Sc|Ac trans|Ci fib]
+16.8 +3.1 40 +17  1015.4  -1.4  727  275           
18 19.05.18 140 (ЮВ) 20000 м    8/0 средняя, верхняя 
[Ac trans|Ci fib]
+15.3 +6.2 55 +16  1014.1  -0.1  726  276           
21 19.05.18 тихо ()   20000 м    8/3 600 м средняя 
[Sc|Ac trans]
+12.2 +7.1 71 +12  1012.8  -1.7  724  278           
00 20.05.18 тихо ()   20000 м    3/3 600 м 
[Sc]
+11.5 +7.8 78 +12  1012.4  -0.5  724  279           
06 20.05.18 220 (ЮЗ) 20000 м  {ливн. осадки}  6/0 средняя, верхняя 
[Ac trans|Ci sp]
+23.6 +8.7 39 +24  1009.3  -0.8  723  267           
18 20.05.18 260 (З) 4000 м  {гроза, ливн. осадки}  6/5 600 м средняя 
[Sc|Ac trans]
+13.2 +11.5 89 +18  1011.8  0.6  724  276           
21 20.05.18 270 (З) 4000 м    8/6 600 м средняя 
[Sc|Ac trans]
+13.6 +11.6 88 +18  1012.2  0.4  724  276           
00 21.05.18 300 (СЗ) 20000 м    10/8 600 м средняя 
[Sc|Ac As]
+12.9 +10.8 87 +17  1013.8  1.5  725  277           
06 21.05.18 310 (СЗ) 20000 м    9/8 600 м средняя 
[Sc|Ac trans]
+11.6 +6.6 71 +11  1018.4  1.7  728  280  +11.3         
09 21.05.18 290 (З) 20000 м    8/6 600 м верхняя 
[Cu med, cong|Ci fib]
+14.3 +3.8 49 +14  1019  729  279           
12 21.05.18 290 (З) 20000 м    9/8 600 м средняя, верхняя 
[Sc|Ac trans|Ci fib]
+11.1 +3.7 60 +10  1021.2  1.6  730  282           
18 21.05.18 030 (СВ) 20000 м    3/3 600 м 
[Sc]
+7.4 +1.2 65 +8  1023.7  1.9  732  287           
21 21.05.18 тихо ()   20000 м    ясно 
+1.9 -0.3 85 +2  1025.1  0.4  732  293           
Время (UTC), дата Ветер
(°,м/с) 
Видим.   Явления Облачность Т
(°С)
Тd
(°С)
f(%) Тe
(°С)
Pmin
(гПа)
dP
(гПа)
Po
(мм)
O2
(г/м3)
Тmin Tmax R s Состояние
почвы

Для получения пояснительной информации подведите курсор к названию столбца.

ПОГОДА Верхний Уфалей - архив

Всё, что Вы хотите узнать о погоде Верхний Уфалей - удобно и подробно!

Выберите нужную дату (начиная с 1 января 2015* года) и нажмите кнопку "Найти".
Будут отображены архивные сводки погоды по пункту Верхний Уфалей, начиная с указанной даты.


Отображать данные в формате CSV (для использования в таблицах Excel)


Внимание! Наш архив погоды предназначен исключительно для личного некоммерческого использования в познавательных целях. Если Вам необходимы официальные справки о состоянии погоды (для производственных, юридических, коммерческих и т.п. целей), обращайтесь в органы Росгидромета.

*Примечание: данная дата относится к архиву по метеостанциям СССР (Россия, СНГ, Балтия).
Архив по метеостанциям Зарубежной Европы и Азии (кроме Китая) хранится 10 дней, по другим регионам земного шара (Китай, Африка, Америка, Австралия, Океания) - 1 день.

Верхний Уфалей - район местоположения метеостанции


Название, широта, долгота, высота метеостанции:
Верхний Уфалей 56.1°ш. 60.3°д. 399 м над ур. моря [Российская Федерация]

Дополнительная информация

В oтличие oт бoльшинства пoгoдных сайтoв мы публикуем пoдрoбную метеoинфoрмацию в детальнoм прoфессиoнальнoм фoрмате.

Характеристики температуры и влажнoсти вoздуха измеряются на высoте 2 м в тени вдали oт зданий и деревьев.
Скoрoсть ветра измеряется на высoте 10 м (на урoвне рoста челoвека скoрoсть ветра ниже в 1.5-2 раза). Если метеoстанция нахoдится в гoрoде или в лесу, тo скoрoсть ветра занижена на 2-4 м/с пo сравнению с oткрытым местoм. Скoрoсть ветра над акватoриями крупных рек и oзёр, а также на вершинах хoлмoв на 2-5 м/с выше, чем в oбычных услoвиях.
Атмoсфернoе давление в разных тoчках местнoсти мoжет значительнo oтличаться oт давления на метеoстанции, в зависимoсти oт услoвий рельефа (при пoдъёме на 10 м давление пoнижается примернo на 1 мм рт.ст.).